Regional Weather Roundup
Issued by NWS

Home | Current Version | Previous Version | Graphics & Text | Print | Product List | Glossary On
Versions: 1 2 3 4 5 6 7 8 9 10 11 12 13 14 15 16 17 18 19 20 21 22 23 24 25 26 27 28 29 30 31 32 33 34 35 36 37 38 39 40 41 42 43 44 45 46 47 48 49 50
000
ASUS43 KFSD 011102
RWRSD

WEATHER ROUNDUP FOR SOUTH DAKOTA
NATIONAL WEATHER SERVICE SIOUX FALLS SD
600 AM CDT MON SEP 01 2014

NOTE: "FAIR" INDICATES FEW OR NO CLOUDS BELOW 12,000 FEET WITH NO
SIGNIFICANT WEATHER AND/OR OBSTRUCTIONS TO VISIBILITY.


SDZ001>005-009-010-012>017-011200-
NORTHWEST AND NORTH CENTRAL SOUTH DAKOTA

CITY           SKY/WX    TMP DP  RH WIND       PRES   REMARKS
BUFFALO          N/A     48  45  89 W7        29.81R
FAITH            N/A     50  48  93 SW6       29.85F
MOBRIDGE       PTCLDY    53  52  96 N6        29.78R
$$

SDZ012>016-024>037-041>051-057-063-072>074-011200-
SOUTHWEST AND SOUTH CENTRAL SOUTH DAKOTA

CITY           SKY/WX    TMP DP  RH WIND       PRES   REMARKS
RAPID CTY ARPT CLEAR     51  45  79 W6        29.90S
PIERRE         CLEAR     54  52  93 SW8       29.81R
CUSTER         CLEAR     42  39  89 NW3       30.00S
ELLSWORTH AFB  CLEAR     50  46  85 W7        29.89S
PHILIP         CLEAR     50  47  89 W9        29.86S
PINE RIDGE     CLEAR     48  47  96 W5        29.94R
WINNER         FAIR      56  53  90 W10       29.84S
$$

SDZ004>011-016>023-039-040-011200-
NORTHEAST SOUTH DAKOTA

CITY           SKY/WX    TMP DP  RH WIND       PRES   REMARKS
ABERDEEN       PTCLDY    54  54 100 CALM      29.74R
WATERTOWN      CLOUDY    62  61  96 W7        29.73S
SISSETON         N/A     57  56  96 NW3       29.70S
$$

SDZ017-020-022-023-036>040-048>070-011200-
SOUTHEAST SOUTH DAKOTA

CITY           SKY/WX    TMP DP  RH WIND       PRES   REMARKS
SIOUX FALLS    LGT RAIN  63  60  90 W6        29.72S
HURON          PTCLDY    58  57  97 W6        29.75R
CHAMBERLAIN    CLEAR     56  54  92 W9        29.81S
MITCHELL       CLEAR     60  59  96 W7        29.76S
YANKTON        MOCLDY    63  59  88 W14G22    29.75R
$$

ABBREVIATIONS USED IN REMARKS
   TC - TEMPERATURE IN CELSIUS
  WCI - WIND CHILL INDEX
   HX - HEAT INDEX
  VSB - VISIBILITY



USA.gov is the U.S. government's official web portal to all federal, state and local government web resources and services.